Data supplied by UK-AIR on 8/11/2015
All Data GMT hour ending 
Status: R =Ratified P=Provisional,P*=As supplied
,,London Westminster,,,,,,,,,,,,,,,,,,,,,,,
Date,time,"Nitric oxide",status,unit,"Nitrogen dioxide",status,unit,"Nitrogen oxides as nitrogen dioxide",status,unit,"Daily measured PM<sub>2.5</sub> (uncorrected)",status,unit
 
01-01-2014,01:00,3.03011,R,ugm-3,21.78401,R,ugm-3,26.43011,R,ugm-3,,,
01-01-2014,02:00,2.22976,R,ugm-3,28.11311,R,ugm-3,31.53203,R,ugm-3,,,
01-01-2014,03:00,14.27784,R,ugm-3,29.16945,R,ugm-3,51.06184,R,ugm-3,,,
01-01-2014,04:00,2.52984,R,ugm-3,29.99517,R,ugm-3,33.87420,R,ugm-3,,,
01-01-2014,05:00,2.48649,R,ugm-3,27.48980,R,ugm-3,31.30237,R,ugm-3,,,
01-01-2014,06:00,2.35802,R,ugm-3,17.21059,R,ugm-3,20.82617,R,ugm-3,,,
01-01-2014,07:00,4.20184,R,ugm-3,19.90387,R,ugm-3,26.34660,R,ugm-3,,,
01-01-2014,08:00,2.95828,R,ugm-3,16.22756,R,ugm-3,20.76353,R,ugm-3,,,
01-01-2014,09:00,2.95828,R,ugm-3,14.72147,R,ugm-3,19.25744,R,ugm-3,,,
01-01-2014,10:00,3.04372,R,ugm-3,12.83431,R,ugm-3,17.50129,R,ugm-3,,,
01-01-2014,11:00,3.17282,R,ugm-3,11.63326,R,ugm-3,16.49818,R,ugm-3,,,
01-01-2014,12:00,2.91525,R,ugm-3,12.90603,R,ugm-3,17.37602,R,ugm-3,,,
01-01-2014,13:00,2.95860,R,ugm-3,13.96890,R,ugm-3,18.50535,R,ugm-3,,,
01-01-2014,14:00,2.82950,R,ugm-3,15.54719,R,ugm-3,19.88570,R,ugm-3,,,
01-01-2014,15:00,2.18683,R,ugm-3,13.08246,R,ugm-3,16.43555,R,ugm-3,,,
01-01-2014,16:00,2.78678,R,ugm-3,11.59788,R,ugm-3,15.87088,R,ugm-3,,,
01-01-2014,17:00,3.12979,R,ugm-3,13.89479,R,ugm-3,18.69373,R,ugm-3,,,
01-01-2014,18:00,1.88654,R,ugm-3,11.47261,R,ugm-3,14.36527,R,ugm-3,,,
01-01-2014,19:00,1.15781,R,ugm-3,11.39802,R,ugm-3,13.17330,R,ugm-3,,,
01-01-2014,20:00,1.20084,R,ugm-3,11.33204,R,ugm-3,13.17330,R,ugm-3,,,
01-01-2014,21:00,1.24293,R,ugm-3,9.57398,R,ugm-3,11.47978,R,ugm-3,,,
01-01-2014,22:00,1.20084,R,ugm-3,14.53118,R,ugm-3,16.37243,R,ugm-3,,,
01-01-2014,23:00,0.77177,R,ugm-3,9.22973,R,ugm-3,10.41308,R,ugm-3,,,
01-01-2014,24:00,0.42907,R,ugm-3,8.62633,R,ugm-3,9.28423,R,ugm-3,,,
02-01-2014,01:00,1.03027,R,ugm-3,6.96405,R,ugm-3,8.54378,R,ugm-3,,,
02-01-2014,02:00,0.45776,R,ugm-3,5.32950,R,ugm-3,6.03139,R,ugm-3,,,
02-01-2014,03:00,0.42938,R,ugm-3,5.87568,R,ugm-3,6.53406,R,ugm-3,,,
02-01-2014,04:00,0.42938,R,ugm-3,11.65573,R,ugm-3,12.31411,R,ugm-3,,,
02-01-2014,05:00,0.60120,R,ugm-3,11.76905,R,ugm-3,12.69087,R,ugm-3,,,
02-01-2014,06:00,2.91962,R,ugm-3,20.59093,R,ugm-3,25.06762,R,ugm-3,,,
02-01-2014,07:00,14.68478,R,ugm-3,40.74868,R,ugm-3,63.26502,R,ugm-3,,,
02-01-2014,08:00,15.41476,R,ugm-3,45.97507,R,ugm-3,69.61070,R,ugm-3,,,
02-01-2014,09:00,17.99106,R,ugm-3,52.39103,R,ugm-3,79.97693,R,ugm-3,,,
02-01-2014,10:00,20.78220,R,ugm-3,48.74006,R,ugm-3,80.60566,R,ugm-3,,,
02-01-2014,11:00,19.23617,R,ugm-3,41.49790,R,ugm-3,70.99296,R,ugm-3,,,
02-01-2014,12:00,17.43320,R,ugm-3,38.16872,R,ugm-3,64.89925,R,ugm-3,,,
02-01-2014,13:00,16.48837,R,ugm-3,36.53927,R,ugm-3,61.82108,R,ugm-3,,,
02-01-2014,14:00,10.04763,R,ugm-3,29.01119,R,ugm-3,44.41733,R,ugm-3,,,
02-01-2014,15:00,7.17073,R,ugm-3,29.90481,R,ugm-3,40.89977,R,ugm-3,,,
02-01-2014,16:00,5.66742,R,ugm-3,37.92631,R,ugm-3,46.61623,R,ugm-3,,,
02-01-2014,17:00,9.18917,R,ugm-3,42.70373,R,ugm-3,56.79360,R,ugm-3,,,
02-01-2014,18:00,4.93775,R,ugm-3,37.28562,R,ugm-3,44.85673,R,ugm-3,,,
02-01-2014,19:00,4.03626,R,ugm-3,35.21295,R,ugm-3,41.40180,R,ugm-3,,,
02-01-2014,20:00,3.60688,R,ugm-3,33.54716,R,ugm-3,39.07763,R,ugm-3,,,
02-01-2014,21:00,3.39203,R,ugm-3,26.52590,R,ugm-3,31.72694,R,ugm-3,,,
02-01-2014,22:00,2.10420,R,ugm-3,18.63683,R,ugm-3,21.86322,R,ugm-3,,,
02-01-2014,23:00,1.11633,R,ugm-3,12.29833,R,ugm-3,14.01002,R,ugm-3,,,
02-01-2014,24:00,1.24512,R,ugm-3,12.66601,R,ugm-3,14.57516,R,ugm-3,,,
03-01-2014,01:00,0.05738,R,ugm-3,9.13283,R,ugm-3,9.22080,R,ugm-3,,,
03-01-2014,02:00,0.97539,R,ugm-3,3.86963,R,ugm-3,5.36520,R,ugm-3,,,
03-01-2014,03:00,0.90367,R,ugm-3,3.45541,R,ugm-3,4.84102,R,ugm-3,,,
03-01-2014,04:00,0.21516,R,ugm-3,4.00812,R,ugm-3,4.33803,R,ugm-3,,,
03-01-2014,05:00,0.34426,R,ugm-3,6.57661,R,ugm-3,7.10446,R,ugm-3,,,
03-01-2014,06:00,0.43032,R,ugm-3,10.40591,R,ugm-3,11.06573,R,ugm-3,,,
03-01-2014,07:00,6.15356,R,ugm-3,26.15153,R,ugm-3,35.58684,R,ugm-3,,,
03-01-2014,08:00,7.44451,R,ugm-3,24.92609,R,ugm-3,36.34085,R,ugm-3,,,
03-01-2014,09:00,10.97312,R,ugm-3,42.46419,R,ugm-3,59.28941,R,ugm-3,,,
03-01-2014,10:00,16.22301,R,ugm-3,39.82112,R,ugm-3,64.69605,R,ugm-3,,,
03-01-2014,11:00,5.68020,R,ugm-3,26.62487,R,ugm-3,35.33439,R,ugm-3,,,
03-01-2014,12:00,6.58387,R,ugm-3,24.61101,R,ugm-3,34.70614,R,ugm-3,,,
03-01-2014,13:00,5.33595,R,ugm-3,22.43697,R,ugm-3,30.61865,R,ugm-3,,,
03-01-2014,14:00,6.75600,R,ugm-3,25.60503,R,ugm-3,35.96408,R,ugm-3,,,
03-01-2014,15:00,7.05722,R,ugm-3,23.06762,R,ugm-3,33.88854,R,ugm-3,,,
03-01-2014,16:00,6.19659,R,ugm-3,23.82114,R,ugm-3,33.32244,R,ugm-3,,,
03-01-2014,17:00,5.33595,R,ugm-3,26.71332,R,ugm-3,34.89500,R,ugm-3,,,
03-01-2014,18:00,6.45478,R,ugm-3,31.47306,R,ugm-3,41.37024,R,ugm-3,,,
03-01-2014,19:00,3.65771,R,ugm-3,25.51371,R,ugm-3,31.12211,R,ugm-3,,,
03-01-2014,20:00,2.49585,R,ugm-3,20.88211,R,ugm-3,24.70902,R,ugm-3,,,
03-01-2014,21:00,1.46308,R,ugm-3,14.85869,R,ugm-3,17.10205,R,ugm-3,,,
03-01-2014,22:00,1.37702,R,ugm-3,12.41213,R,ugm-3,14.52353,R,ugm-3,,,
03-01-2014,23:00,1.07580,R,ugm-3,17.14987,R,ugm-3,18.79940,R,ugm-3,,,
03-01-2014,24:00,0.90367,R,ugm-3,12.44655,R,ugm-3,13.83216,R,ugm-3,,,
04-01-2014,01:00,0.57459,R,ugm-3,10.20128,R,ugm-3,11.08230,R,ugm-3,,,
04-01-2014,02:00,1.09139,R,ugm-3,10.50090,R,ugm-3,12.17434,R,ugm-3,,,
04-01-2014,03:00,0.34488,R,ugm-3,10.05019,R,ugm-3,10.57899,R,ugm-3,,,
04-01-2014,04:00,0.81916,R,ugm-3,10.58234,R,ugm-3,11.83838,R,ugm-3,,,
04-01-2014,05:00,0.34488,R,ugm-3,11.37220,R,ugm-3,11.90101,R,ugm-3,,,
04-01-2014,06:00,0.43094,R,ugm-3,10.92563,R,ugm-3,11.58640,R,ugm-3,,,
04-01-2014,07:00,4.22336,R,ugm-3,18.71190,R,ugm-3,25.18763,R,ugm-3,,,
04-01-2014,08:00,3.61967,R,ugm-3,17.93734,R,ugm-3,23.48741,R,ugm-3,,,
04-01-2014,09:00,2.97356,R,ugm-3,19.11687,R,ugm-3,23.67627,R,ugm-3,,,
04-01-2014,10:00,5.60225,R,ugm-3,23.77620,R,ugm-3,32.36619,R,ugm-3,,,
04-01-2014,11:00,4.99918,R,ugm-3,25.14173,R,ugm-3,32.80703,R,ugm-3,,,
04-01-2014,12:00,6.55051,R,ugm-3,24.90410,R,ugm-3,34.94807,R,ugm-3,,,
04-01-2014,13:00,4.74036,R,ugm-3,21.94928,R,ugm-3,29.21774,R,ugm-3,,,
04-01-2014,14:00,4.13698,R,ugm-3,19.72600,R,ugm-3,26.06929,R,ugm-3,,,
04-01-2014,15:00,19.43574,R,ugm-3,51.05084,R,ugm-3,80.85189,R,ugm-3,,,
04-01-2014,16:00,28.87312,R,ugm-3,71.59109,R,ugm-3,115.86260,R,ugm-3,,,
04-01-2014,17:00,24.21914,R,ugm-3,66.82610,R,ugm-3,103.96159,R,ugm-3,,,
04-01-2014,18:00,13.18677,R,ugm-3,69.95256,R,ugm-3,90.17198,R,ugm-3,,,
04-01-2014,19:00,5.34375,R,ugm-3,50.99729,R,ugm-3,59.19092,R,ugm-3,,,
04-01-2014,20:00,6.37807,R,ugm-3,52.68555,R,ugm-3,62.46512,R,ugm-3,,,
04-01-2014,21:00,4.61096,R,ugm-3,42.48619,R,ugm-3,49.55622,R,ugm-3,,,
04-01-2014,22:00,5.25768,R,ugm-3,36.64589,R,ugm-3,44.70756,R,ugm-3,,,
04-01-2014,23:00,7.15358,R,ugm-3,41.10632,R,ugm-3,52.07498,R,ugm-3,,,
04-01-2014,24:00,2.62900,R,ugm-3,38.09509,R,ugm-3,42.12616,R,ugm-3,,,
05-01-2014,01:00,2.76402,R,ugm-3,34.58055,R,ugm-3,38.81865,R,ugm-3,,,
05-01-2014,02:00,3.22427,R,ugm-3,28.74934,R,ugm-3,33.69315,R,ugm-3,,,
05-01-2014,03:00,1.07985,R,ugm-3,24.87445,R,ugm-3,26.53020,R,ugm-3,,,
05-01-2014,04:00,0.94982,R,ugm-3,21.98658,R,ugm-3,23.44295,R,ugm-3,,,
05-01-2014,05:00,2.41883,R,ugm-3,29.31193,R,ugm-3,33.02075,R,ugm-3,,,
05-01-2014,06:00,1.42504,R,ugm-3,27.81062,R,ugm-3,29.99565,R,ugm-3,,,
05-01-2014,07:00,4.40484,R,ugm-3,43.28179,R,ugm-3,50.03578,R,ugm-3,,,
05-01-2014,08:00,8.03292,R,ugm-3,58.01043,R,ugm-3,70.32741,R,ugm-3,,,
05-01-2014,09:00,14.94297,R,ugm-3,64.68123,R,ugm-3,87.59346,R,ugm-3,,,
05-01-2014,10:00,15.50425,R,ugm-3,58.84189,R,ugm-3,82.61474,R,ugm-3,,,
05-01-2014,11:00,12.86995,R,ugm-3,50.59328,R,ugm-3,70.32693,R,ugm-3,,,
05-01-2014,12:00,11.79042,R,ugm-3,43.11062,R,ugm-3,61.18900,R,ugm-3,,,
05-01-2014,13:00,5.35528,R,ugm-3,39.49265,R,ugm-3,47.70397,R,ugm-3,,,
05-01-2014,14:00,7.12614,R,ugm-3,37.84838,R,ugm-3,48.77497,R,ugm-3,,,
05-01-2014,15:00,4.14571,R,ugm-3,34.22610,R,ugm-3,40.58277,R,ugm-3,,,
05-01-2014,16:00,3.54109,R,ugm-3,31.81348,R,ugm-3,37.24307,R,ugm-3,,,
05-01-2014,17:00,2.89374,R,ugm-3,21.46303,R,ugm-3,25.90003,R,ugm-3,,,
05-01-2014,18:00,2.20211,R,ugm-3,19.43578,R,ugm-3,22.81230,R,ugm-3,,,
05-01-2014,19:00,1.59779,R,ugm-3,19.92156,R,ugm-3,22.37147,R,ugm-3,,,
05-01-2014,20:00,2.02998,R,ugm-3,19.76282,R,ugm-3,22.87541,R,ugm-3,,,
05-01-2014,21:00,2.41852,R,ugm-3,17.59165,R,ugm-3,21.29999,R,ugm-3,,,
05-01-2014,22:00,1.12288,R,ugm-3,13.96938,R,ugm-3,15.69111,R,ugm-3,,,
05-01-2014,23:00,0.64766,R,ugm-3,10.16063,R,ugm-3,11.15370,R,ugm-3,,,
05-01-2014,24:00,1.20926,R,ugm-3,8.35523,R,ugm-3,10.20940,R,ugm-3,,,
06-01-2014,01:00,-0.05779,R,ugm-3,6.56816,R,ugm-3,6.47955,R,ugm-3,,,
06-01-2014,02:00,0.86521,R,ugm-3,6.58346,R,ugm-3,7.91010,R,ugm-3,,,
06-01-2014,03:00,0.51919,R,ugm-3,4.44226,R,ugm-3,5.23834,R,ugm-3,,,
06-01-2014,04:00,0.47585,R,ugm-3,5.13984,R,ugm-3,5.86946,R,ugm-3,,,
06-01-2014,05:00,0.47585,R,ugm-3,4.19316,R,ugm-3,4.92278,R,ugm-3,,,
06-01-2014,06:00,1.03807,R,ugm-3,8.06453,R,ugm-3,9.65621,R,ugm-3,,,
06-01-2014,07:00,5.06061,R,ugm-3,20.70425,R,ugm-3,28.46374,R,ugm-3,,,
06-01-2014,08:00,8.13115,R,ugm-3,26.78839,R,ugm-3,39.25598,R,ugm-3,,,
06-01-2014,09:00,6.61755,R,ugm-3,30.24523,R,ugm-3,40.39200,R,ugm-3,,,
06-01-2014,10:00,11.28838,R,ugm-3,41.00735,R,ugm-3,58.31595,R,ugm-3,,,
06-01-2014,11:00,7.95809,R,ugm-3,30.77738,R,ugm-3,42.97961,R,ugm-3,,,
06-01-2014,12:00,,,,,,,,,,,,
06-01-2014,13:00,6.57390,R,ugm-3,21.85509,R,ugm-3,31.93493,R,ugm-3,,,
06-01-2014,14:00,5.66555,R,ugm-3,21.98562,R,ugm-3,30.67268,R,ugm-3,,,
06-01-2014,15:00,7.78534,R,ugm-3,23.53188,R,ugm-3,35.46923,R,ugm-3,,,
06-01-2014,16:00,7.95840,R,ugm-3,30.08267,R,ugm-3,42.28538,R,ugm-3,,,
06-01-2014,17:00,4.28167,R,ugm-3,25.74847,R,ugm-3,32.31360,R,ugm-3,,,
06-01-2014,18:00,3.54639,R,ugm-3,22.83668,R,ugm-3,28.27440,R,ugm-3,,,
06-01-2014,19:00,1.77335,R,ugm-3,20.06452,R,ugm-3,22.78361,R,ugm-3,,,
06-01-2014,20:00,1.08141,R,ugm-3,19.67389,R,ugm-3,21.33203,R,ugm-3,,,
06-01-2014,21:00,2.24888,R,ugm-3,15.73796,R,ugm-3,19.18620,R,ugm-3,,,
06-01-2014,22:00,1.16779,R,ugm-3,11.71550,R,ugm-3,13.50608,R,ugm-3,,,
06-01-2014,23:00,3.07054,R,ugm-3,15.55102,R,ugm-3,20.25911,R,ugm-3,,,
06-01-2014,24:00,0.21641,R,ugm-3,7.87281,R,ugm-3,8.20463,R,ugm-3,,,
07-01-2014,01:00,0.28730,R,ugm-3,5.28615,R,ugm-3,5.72666,R,ugm-3,,,
07-01-2014,02:00,0.57542,R,ugm-3,3.49669,R,ugm-3,4.37899,R,ugm-3,,,
07-01-2014,03:00,-0.04334,R,ugm-3,2.59287,R,ugm-3,2.52641,R,ugm-3,,,
07-01-2014,04:00,0.64735,R,ugm-3,3.93401,R,ugm-3,4.92660,R,ugm-3,,,
07-01-2014,05:00,0.38853,R,ugm-3,4.07793,R,ugm-3,4.67367,R,ugm-3,,,
07-01-2014,06:00,0.43157,R,ugm-3,7.29619,R,ugm-3,7.95791,R,ugm-3,,,
07-01-2014,07:00,5.26517,R,ugm-3,16.93853,R,ugm-3,25.01168,R,ugm-3,,,
07-01-2014,08:00,4.09988,R,ugm-3,24.78839,R,ugm-3,31.07478,R,ugm-3,,,
07-01-2014,09:00,5.00604,R,ugm-3,23.14651,R,ugm-3,30.82233,R,ugm-3,,,
07-01-2014,10:00,5.39457,R,ugm-3,23.18237,R,ugm-3,31.45393,R,ugm-3,,,
07-01-2014,11:00,7.50906,R,ugm-3,29.60359,R,ugm-3,41.11732,R,ugm-3,,,
07-01-2014,12:00,9.06288,R,ugm-3,32.58996,R,ugm-3,46.48618,R,ugm-3,,,
07-01-2014,13:00,9.27898,R,ugm-3,28.97390,R,ugm-3,43.20146,R,ugm-3,,,
07-01-2014,14:00,7.37996,R,ugm-3,26.96003,R,ugm-3,38.27582,R,ugm-3,,,
07-01-2014,15:00,6.90537,R,ugm-3,27.11829,R,ugm-3,37.70637,R,ugm-3,,,
07-01-2014,16:00,4.61751,R,ugm-3,29.99469,R,ugm-3,37.07477,R,ugm-3,,,
07-01-2014,17:00,6.12830,R,ugm-3,34.68940,R,ugm-3,44.08599,R,ugm-3,,,
07-01-2014,18:00,5.04938,R,ugm-3,35.90145,R,ugm-3,43.64373,R,ugm-3,,,
07-01-2014,19:00,4.91998,R,ugm-3,41.21629,R,ugm-3,48.76014,R,ugm-3,,,
07-01-2014,20:00,2.58940,R,ugm-3,31.14698,R,ugm-3,35.11733,R,ugm-3,,,
07-01-2014,21:00,2.07145,R,ugm-3,26.82473,R,ugm-3,30.00091,R,ugm-3,,,
07-01-2014,22:00,3.06430,R,ugm-3,20.12333,R,ugm-3,24.82186,R,ugm-3,,,
07-01-2014,23:00,2.71911,R,ugm-3,26.02100,R,ugm-3,30.19025,R,ugm-3,,,
07-01-2014,24:00,0.73341,R,ugm-3,14.03393,R,ugm-3,15.15848,R,ugm-3,,,
08-01-2014,01:00,2.81141,R,ugm-3,19.28693,R,ugm-3,23.59770,R,ugm-3,,,
08-01-2014,02:00,0.91801,R,ugm-3,10.30710,R,ugm-3,11.71470,R,ugm-3,,,
08-01-2014,03:00,0.30122,R,ugm-3,7.37556,R,ugm-3,7.83743,R,ugm-3,,,
08-01-2014,04:00,0.34426,R,ugm-3,11.10206,R,ugm-3,11.62991,R,ugm-3,,,
08-01-2014,05:00,1.11883,R,ugm-3,14.71860,R,ugm-3,16.43411,R,ugm-3,,,
08-01-2014,06:00,1.29096,R,ugm-3,17.80442,R,ugm-3,19.78386,R,ugm-3,,,
08-01-2014,07:00,9.63913,R,ugm-3,45.83737,R,ugm-3,60.61717,R,ugm-3,,,
08-01-2014,08:00,14.41567,R,ugm-3,60.00373,R,ugm-3,82.10745,R,ugm-3,,,
08-01-2014,09:00,21.68805,R,ugm-3,70.97574,R,ugm-3,104.23029,R,ugm-3,,,
08-01-2014,10:00,21.08561,R,ugm-3,59.19427,R,ugm-3,91.52508,R,ugm-3,,,
08-01-2014,11:00,19.92375,R,ugm-3,49.15603,R,ugm-3,79.70535,R,ugm-3,,,
08-01-2014,12:00,16.09391,R,ugm-3,40.99635,R,ugm-3,65.67334,R,ugm-3,,,
08-01-2014,13:00,12.56530,R,ugm-3,41.28657,R,ugm-3,60.55310,R,ugm-3,,,
08-01-2014,14:00,15.19024,R,ugm-3,49.08240,R,ugm-3,72.37378,R,ugm-3,,,
08-01-2014,15:00,15.92179,R,ugm-3,50.48857,R,ugm-3,74.90163,R,ugm-3,,,
08-01-2014,16:00,7.61664,R,ugm-3,49.57009,R,ugm-3,61.24877,R,ugm-3,,,
08-01-2014,17:00,15.19024,R,ugm-3,66.71708,R,ugm-3,90.00847,R,ugm-3,,,
08-01-2014,18:00,12.52227,R,ugm-3,58.16630,R,ugm-3,77.36684,R,ugm-3,,,
08-01-2014,19:00,8.26212,R,ugm-3,51.29803,R,ugm-3,63.96643,R,ugm-3,,,
08-01-2014,20:00,7.74573,R,ugm-3,42.54595,R,ugm-3,54.42258,R,ugm-3,,,
08-01-2014,21:00,8.60637,R,ugm-3,37.05421,R,ugm-3,50.25046,R,ugm-3,,,
08-01-2014,22:00,5.03473,R,ugm-3,32.29065,R,ugm-3,40.01046,R,ugm-3,,,
08-01-2014,23:00,3.05526,R,ugm-3,22.62105,R,ugm-3,27.30572,R,ugm-3,,,
08-01-2014,24:00,1.89340,R,ugm-3,17.51276,R,ugm-3,20.41594,R,ugm-3,,,
09-01-2014,01:00,1.08765,R,ugm-3,11.83774,R,ugm-3,13.50544,R,ugm-3,,,
09-01-2014,02:00,1.37411,R,ugm-3,8.18996,R,ugm-3,10.29690,R,ugm-3,,,
09-01-2014,03:00,0.72998,R,ugm-3,7.04661,R,ugm-3,8.16590,R,ugm-3,,,
09-01-2014,04:00,0.38635,R,ugm-3,4.28209,R,ugm-3,4.87448,R,ugm-3,,,
09-01-2014,05:00,0.30060,R,ugm-3,3.08391,R,ugm-3,3.54482,R,ugm-3,,,
09-01-2014,06:00,0.17150,R,ugm-3,8.40926,R,ugm-3,8.67223,R,ugm-3,,,
09-01-2014,07:00,8.88826,R,ugm-3,23.46781,R,ugm-3,37.09628,R,ugm-3,,,
09-01-2014,08:00,15.07113,R,ugm-3,45.76565,R,ugm-3,68.87438,R,ugm-3,,,
09-01-2014,09:00,16.23080,R,ugm-3,43.98702,R,ugm-3,68.87391,R,ugm-3,,,
09-01-2014,10:00,23.57304,R,ugm-3,53.74651,R,ugm-3,89.89133,R,ugm-3,,,
09-01-2014,11:00,28.16715,R,ugm-3,49.99466,R,ugm-3,93.18369,R,ugm-3,,,
09-01-2014,12:00,30.87223,R,ugm-3,55.72164,R,ugm-3,103.05841,R,ugm-3,,,
09-01-2014,13:00,33.23462,R,ugm-3,55.83448,R,ugm-3,106.79352,R,ugm-3,,,
09-01-2014,14:00,30.48651,R,ugm-3,54.16057,R,ugm-3,100.90589,R,ugm-3,,,
09-01-2014,15:00,27.22263,R,ugm-3,55.17754,R,ugm-3,96.91833,R,ugm-3,,,
09-01-2014,16:00,31.81769,R,ugm-3,69.84450,R,ugm-3,118.63094,R,ugm-3,,,
09-01-2014,17:00,27.35204,R,ugm-3,74.22317,R,ugm-3,116.16238,R,ugm-3,,,
09-01-2014,18:00,20.95371,R,ugm-3,64.91599,R,ugm-3,97.04455,R,ugm-3,,,
09-01-2014,19:00,13.69723,R,ugm-3,65.66091,R,ugm-3,86.66303,R,ugm-3,,,
09-01-2014,20:00,15.20022,R,ugm-3,65.25498,R,ugm-3,88.56166,R,ugm-3,,,
09-01-2014,21:00,8.50191,R,ugm-3,53.36975,R,ugm-3,66.40583,R,ugm-3,,,
09-01-2014,22:00,5.15260,R,ugm-3,43.18521,R,ugm-3,51.08574,R,ugm-3,,,
09-01-2014,23:00,4.25080,R,ugm-3,41.08624,R,ugm-3,47.60404,R,ugm-3,,,
09-01-2014,24:00,6.61225,R,ugm-3,39.93443,R,ugm-3,50.07308,R,ugm-3,,,
10-01-2014,01:00,6.05564,R,ugm-3,36.66581,R,ugm-3,45.95100,R,ugm-3,,,
10-01-2014,02:00,2.45635,R,ugm-3,27.82496,R,ugm-3,31.59131,R,ugm-3,,,
10-01-2014,03:00,1.24231,R,ugm-3,20.64831,R,ugm-3,22.55316,R,ugm-3,,,
10-01-2014,04:00,1.15687,R,ugm-3,21.53905,R,ugm-3,23.31290,R,ugm-3,,,
10-01-2014,05:00,1.41413,R,ugm-3,21.27130,R,ugm-3,23.43960,R,ugm-3,,,
10-01-2014,06:00,1.94205,R,ugm-3,30.89453,R,ugm-3,33.87229,R,ugm-3,,,
10-01-2014,07:00,19.23711,R,ugm-3,59.00493,R,ugm-3,88.50142,R,ugm-3,,,
10-01-2014,08:00,47.90037,R,ugm-3,79.16746,R,ugm-3,152.61368,R,ugm-3,,,
10-01-2014,09:00,91.21630,R,ugm-3,92.13038,R,ugm-3,231.99342,R,ugm-3,,,
10-01-2014,10:00,109.59713,R,ugm-3,94.29151,R,ugm-3,262.33810,R,ugm-3,,,
10-01-2014,11:00,80.71933,R,ugm-3,86.93890,R,ugm-3,210.70682,R,ugm-3,,,
10-01-2014,12:00,20.35126,R,ugm-3,54.82612,R,ugm-3,86.03094,R,ugm-3,,,
10-01-2014,13:00,14.35331,R,ugm-3,44.76493,R,ugm-3,66.77303,R,ugm-3,,,
10-01-2014,14:00,10.06821,R,ugm-3,36.06736,R,ugm-3,51.50506,R,ugm-3,,,
10-01-2014,15:00,11.09692,R,ugm-3,46.46371,R,ugm-3,63.47874,R,ugm-3,,,
10-01-2014,16:00,13.75335,R,ugm-3,64.75295,R,ugm-3,85.84113,R,ugm-3,,,
10-01-2014,17:00,13.36794,R,ugm-3,69.77852,R,ugm-3,90.27574,R,ugm-3,,,
10-01-2014,18:00,10.23971,R,ugm-3,62.34893,R,ugm-3,78.04960,R,ugm-3,,,
10-01-2014,19:00,5.39831,R,ugm-3,52.47661,R,ugm-3,60.75391,R,ugm-3,,,
10-01-2014,20:00,4.24176,R,ugm-3,47.72500,R,ugm-3,54.22894,R,ugm-3,,,
10-01-2014,21:00,4.62717,R,ugm-3,47.83019,R,ugm-3,54.92509,R,ugm-3,,,
10-01-2014,22:00,3.42758,R,ugm-3,37.06282,R,ugm-3,42.31837,R,ugm-3,,,
10-01-2014,23:00,2.01377,R,ugm-3,26.30739,R,ugm-3,29.39513,R,ugm-3,,,
10-01-2014,24:00,1.28534,R,ugm-3,21.59547,R,ugm-3,23.56630,R,ugm-3,,,
11-01-2014,01:00,1.53792,R,ugm-3,20.38088,R,ugm-3,22.73899,R,ugm-3,,,
11-01-2014,02:00,1.76576,R,ugm-3,27.80839,R,ugm-3,30.51585,R,ugm-3,,,
11-01-2014,03:00,0.81168,R,ugm-3,22.59332,R,ugm-3,23.83788,R,ugm-3,,,
11-01-2014,04:00,1.36704,R,ugm-3,14.70473,R,ugm-3,16.80083,R,ugm-3,,,
11-01-2014,05:00,0.64080,R,ugm-3,12.07792,R,ugm-3,13.06046,R,ugm-3,,,
11-01-2014,06:00,0.93984,R,ugm-3,13.45778,R,ugm-3,14.89885,R,ugm-3,,,
11-01-2014,07:00,16.61809,R,ugm-3,46.28776,R,ugm-3,71.76848,R,ugm-3,,,
11-01-2014,08:00,19.43761,R,ugm-3,49.19141,R,ugm-3,78.99533,R,ugm-3,,,
11-01-2014,09:00,24.77762,R,ugm-3,53.36640,R,ugm-3,91.35821,R,ugm-3,,,
11-01-2014,10:00,29.26322,R,ugm-3,56.12566,R,ugm-3,100.99530,R,ugm-3,,,
11-01-2014,11:00,33.74882,R,ugm-3,56.91935,R,ugm-3,108.66682,R,ugm-3,,,
11-01-2014,12:00,39.13154,R,ugm-3,60.01377,R,ugm-3,120.01463,R,ugm-3,,,
11-01-2014,13:00,22.34257,R,ugm-3,54.05729,R,ugm-3,88.31543,R,ugm-3,,,
11-01-2014,14:00,27.25538,R,ugm-3,51.65949,R,ugm-3,93.45049,R,ugm-3,,,
11-01-2014,15:00,23.88049,R,ugm-3,51.50888,R,ugm-3,88.12513,R,ugm-3,,,
11-01-2014,16:00,30.50210,R,ugm-3,54.86006,R,ugm-3,101.62929,R,ugm-3,,,
11-01-2014,17:00,32.25362,R,ugm-3,69.22820,R,ugm-3,118.68306,R,ugm-3,,,
11-01-2014,18:00,32.72354,R,ugm-3,77.44764,R,ugm-3,127.62304,R,ugm-3,,,
11-01-2014,19:00,43.53171,R,ugm-3,80.08498,R,ugm-3,146.83267,R,ugm-3,,,
11-01-2014,20:00,49.93971,R,ugm-3,84.39767,R,ugm-3,160.97082,R,ugm-3,,,
11-01-2014,21:00,84.20117,R,ugm-3,92.34745,R,ugm-3,221.45411,R,ugm-3,,,
11-01-2014,22:00,163.19050,R,ugm-3,109.69670,R,ugm-3,359.91863,R,ugm-3,,,
11-01-2014,23:00,127.47656,R,ugm-3,96.93650,R,ugm-3,292.39782,R,ugm-3,,,
11-01-2014,24:00,117.65095,R,ugm-3,92.28530,R,ugm-3,272.68090,R,ugm-3,,,
12-01-2014,01:00,236.43528,R,ugm-3,111.80220,R,ugm-3,474.33124,R,ugm-3,,,
12-01-2014,02:00,108.21450,R,ugm-3,77.71061,R,ugm-3,243.63720,R,ugm-3,,,
12-01-2014,03:00,89.94187,R,ugm-3,73.17990,R,ugm-3,211.08884,R,ugm-3,,,
12-01-2014,04:00,59.25080,R,ugm-3,64.72283,R,ugm-3,155.57279,R,ugm-3,,,
12-01-2014,05:00,40.62269,R,ugm-3,61.87846,R,ugm-3,124.16572,R,ugm-3,,,
12-01-2014,06:00,40.87870,R,ugm-3,63.96022,R,ugm-3,126.64001,R,ugm-3,,,
12-01-2014,07:00,42.92489,R,ugm-3,62.60043,R,ugm-3,128.41768,R,ugm-3,,,
12-01-2014,08:00,60.44416,R,ugm-3,63.33674,R,ugm-3,156.01649,R,ugm-3,,,
12-01-2014,09:00,44.62995,R,ugm-3,63.85598,R,ugm-3,132.28763,R,ugm-3,,,
12-01-2014,10:00,44.03312,R,ugm-3,66.99153,R,ugm-3,134.50804,R,ugm-3,,,
12-01-2014,11:00,20.29045,R,ugm-3,44.58085,R,ugm-3,75.69245,R,ugm-3,,,
12-01-2014,12:00,5.37087,R,ugm-3,23.86896,R,ugm-3,32.10418,R,ugm-3,,,
12-01-2014,13:00,4.77435,R,ugm-3,21.92873,R,ugm-3,29.24930,R,ugm-3,,,
12-01-2014,14:00,5.58416,R,ugm-3,28.49147,R,ugm-3,37.05373,R,ugm-3,,,
12-01-2014,15:00,5.92530,R,ugm-3,36.34276,R,ugm-3,45.42809,R,ugm-3,,,
12-01-2014,16:00,10.44333,R,ugm-3,41.59735,R,ugm-3,57.61024,R,ugm-3,,,
12-01-2014,17:00,14.49269,R,ugm-3,46.61814,R,ugm-3,68.83996,R,ugm-3,,,
12-01-2014,18:00,16.96546,R,ugm-3,49.29899,R,ugm-3,75.31234,R,ugm-3,,,
12-01-2014,19:00,8.86643,R,ugm-3,44.77641,R,ugm-3,58.37141,R,ugm-3,,,
12-01-2014,20:00,6.73511,R,ugm-3,40.55791,R,ugm-3,50.88493,R,ugm-3,,,
12-01-2014,21:00,4.34778,R,ugm-3,27.72169,R,ugm-3,34.38818,R,ugm-3,,,
12-01-2014,22:00,4.43322,R,ugm-3,27.14698,R,ugm-3,33.94448,R,ugm-3,,,
12-01-2014,23:00,4.04936,R,ugm-3,27.92537,R,ugm-3,34.13430,R,ugm-3,,,
12-01-2014,24:00,2.68513,R,ugm-3,20.24620,R,ugm-3,24.36334,R,ugm-3,,,
13-01-2014,01:00,1.07767,R,ugm-3,14.69884,R,ugm-3,16.35124,R,ugm-3,,,
13-01-2014,02:00,2.21188,R,ugm-3,11.94356,R,ugm-3,15.33506,R,ugm-3,,,
13-01-2014,03:00,0.46805,R,ugm-3,7.60697,R,ugm-3,8.32463,R,ugm-3,,,
13-01-2014,04:00,0.68040,R,ugm-3,9.25028,R,ugm-3,10.29355,R,ugm-3,,,
13-01-2014,05:00,0.68040,R,ugm-3,12.99974,R,ugm-3,14.04301,R,ugm-3,,,
13-01-2014,06:00,1.10604,R,ugm-3,17.87518,R,ugm-3,19.57109,R,ugm-3,,,
13-01-2014,07:00,4.97642,R,ugm-3,38.69227,R,ugm-3,46.32266,R,ugm-3,,,
13-01-2014,08:00,26.71062,R,ugm-3,84.85954,R,ugm-3,125.81525,R,ugm-3,,,
13-01-2014,09:00,35.08967,R,ugm-3,88.34172,R,ugm-3,142.14513,R,ugm-3,,,
13-01-2014,10:00,39.47050,R,ugm-3,83.08665,R,ugm-3,143.60723,R,ugm-3,,,
13-01-2014,11:00,26.32801,R,ugm-3,67.46344,R,ugm-3,107.83249,R,ugm-3,,,
13-01-2014,12:00,15.52452,R,ugm-3,46.66548,R,ugm-3,70.46941,R,ugm-3,,,
13-01-2014,13:00,11.18579,R,ugm-3,35.71642,R,ugm-3,52.86772,R,ugm-3,,,
13-01-2014,14:00,8.97432,R,ugm-3,30.40158,R,ugm-3,44.16202,R,ugm-3,,,
13-01-2014,15:00,7.91100,R,ugm-3,39.21199,R,ugm-3,51.34202,R,ugm-3,,,
13-01-2014,16:00,7.40117,R,ugm-3,35.92727,R,ugm-3,47.27557,R,ugm-3,,,
13-01-2014,17:00,6.67773,R,ugm-3,47.64850,R,ugm-3,57.88755,R,ugm-3,,,
13-01-2014,18:00,8.29423,R,ugm-3,48.21986,R,ugm-3,60.93751,R,ugm-3,,,
13-01-2014,19:00,8.03885,R,ugm-3,58.65112,R,ugm-3,70.97718,R,ugm-3,,,
13-01-2014,20:00,10.76077,R,ugm-3,66.93176,R,ugm-3,83.43138,R,ugm-3,,,
13-01-2014,21:00,5.91189,R,ugm-3,47.36115,R,ugm-3,56.42592,R,ugm-3,,,
13-01-2014,22:00,2.42444,R,ugm-3,41.46157,R,ugm-3,45.17899,R,ugm-3,,,
13-01-2014,23:00,2.21178,R,ugm-3,30.09558,R,ugm-3,33.48692,R,ugm-3,,,
13-01-2014,24:00,1.27599,R,ugm-3,30.76830,R,ugm-3,32.72479,R,ugm-3,,,
14-01-2014,01:00,1.07434,R,ugm-3,18.61691,R,ugm-3,20.26421,R,ugm-3,,,
14-01-2014,02:00,1.18743,R,ugm-3,17.76521,R,ugm-3,19.58591,R,ugm-3,,,
14-01-2014,03:00,0.93298,R,ugm-3,14.97583,R,ugm-3,16.40638,R,ugm-3,,,
14-01-2014,04:00,3.73192,R,ugm-3,24.73771,R,ugm-3,30.45991,R,ugm-3,,,
14-01-2014,05:00,3.13821,R,ugm-3,30.54454,R,ugm-3,35.35639,R,ugm-3,,,
14-01-2014,06:00,5.08898,R,ugm-3,35.56581,R,ugm-3,43.36881,R,ugm-3,,,
14-01-2014,07:00,32.65431,R,ugm-3,67.50982,R,ugm-3,117.57907,R,ugm-3,,,
14-01-2014,08:00,85.19807,R,ugm-3,86.97189,R,ugm-3,217.60712,R,ugm-3,,,
14-01-2014,09:00,106.48699,R,ugm-3,92.73808,R,ugm-3,256.01586,R,ugm-3,,,
14-01-2014,10:00,113.56916,R,ugm-3,95.36012,R,ugm-3,269.49707,R,ugm-3,,,
14-01-2014,11:00,80.91485,R,ugm-3,79.29512,R,ugm-3,203.36282,R,ugm-3,,,
14-01-2014,12:00,75.31696,R,ugm-3,81.51936,R,ugm-3,197.00376,R,ugm-3,,,
14-01-2014,13:00,55.55474,R,ugm-3,73.34868,R,ugm-3,158.53143,R,ugm-3,,,
14-01-2014,14:00,44.82547,R,ugm-3,67.28892,R,ugm-3,136.02035,R,ugm-3,,,
14-01-2014,15:00,37.65848,R,ugm-3,68.86673,R,ugm-3,126.60893,R,ugm-3,,,
14-01-2014,16:00,33.96897,R,ugm-3,72.93414,R,ugm-3,125.01917,R,ugm-3,,,
14-01-2014,17:00,27.14125,R,ugm-3,78.95183,R,ugm-3,120.56783,R,ugm-3,,,
14-01-2014,18:00,27.90460,R,ugm-3,82.35990,R,ugm-3,125.14635,R,ugm-3,,,
14-01-2014,19:00,28.20145,R,ugm-3,83.74885,R,ugm-3,126.99048,R,ugm-3,,,
14-01-2014,20:00,17.38736,R,ugm-3,76.67452,R,ugm-3,103.33477,R,ugm-3,,,
14-01-2014,21:00,13.99471,R,ugm-3,72.65588,R,ugm-3,94.11413,R,ugm-3,,,
14-01-2014,22:00,7.63348,R,ugm-3,60.78881,R,ugm-3,72.49331,R,ugm-3,,,
14-01-2014,23:00,8.01515,R,ugm-3,60.71231,R,ugm-3,73.00204,R,ugm-3,,,
14-01-2014,24:00,3.26543,R,ugm-3,32.06641,R,ugm-3,37.07333,R,ugm-3,,,
15-01-2014,01:00,1.29719,R,ugm-3,14.38710,R,ugm-3,16.37610,R,ugm-3,,,